Regional Weather Roundup
Issued by NWS

Home | Current Version | Previous Version | Graphics & Text | Print | Product List | Glossary On
Versions: 1 2 3 4 5 6 7 8 9 10 11 12 13 14 15 16 17 18 19 20 21 22 23 24 25 26 27 28 29 30 31 32 33 34 35 36 37 38 39 40 41 42 43 44 45 46 47 48 49 50
000
ASUS45 KBOU 270007
RWRCO

WEATHER ROUNDUP FOR COLORADO
NATIONAL WEATHER SERVICE DENVER/BOULDER CO
600 PM MDT WED AUG 26 2015

NOTE: "FAIR" INDICATES FEW OR NO CLOUDS BELOW 12000 FEET WITH NO
SIGNIFICANT WEATHER AND/OR OBSTRUCTIONS TO VISIBILITY.

COZ001>005-013-030-031-270100-
...NORTHWEST COLORADO...

CITY           SKY/WX    TMP DP  RH WIND       PRES   REMARKS
CRAIG          CLOUDY    71  52  50 W23G33    30.28R
HAYDEN         NOT AVBL
MEEKER         HVY RAIN  63  57  82 SW9       30.35R
MOUNT WERNER   NOT AVBL
STEAMBOAT SPGS CLOUDY    75  45  33 SW6       30.26F
WALDEN         CLOUDY    55  48  76 NE14      30.39F
$$

COZ006>008-011-270100-
...WEST CENTRAL VALLEYS...

CITY           SKY/WX    TMP DP  RH WIND       PRES   REMARKS
GRAND JUNCTION CLOUDY    74  54  49 W9        30.22F
MONTROSE       CLOUDY    75  51  43 E5        30.29F
EAGLE          CLOUDY    73  46  38 W17       30.31R
RIFLE          LGT RAIN  68  56  65 W9        30.29S
DELTA          RAIN      77  50  38 NE10      30.26F
NUCLA          CLOUDY    72  54  53 NW6       30.33F
$$

COZ017>023-064>068-270100-
...SOUTHWEST COLORADO...

CITY           SKY/WX    TMP DP  RH WIND       PRES   REMARKS
DURANGO        MOSUNNY   70  54  56 E7        30.36F
CORTEZ         PTSUNNY   72  57  59 CALM      30.29F
PAGOSA SPRINGS MOSUNNY   67  51  57 CALM      30.46F
TELLURIDE      CLOUDY    60  51  73 CALM      30.53F
WOLF CREEK PAS FOG       43  43 100 SW8       30.75F VSB<1/4
$$

COZ009-010-012-014-032>034-037-058>063-270100-
...CENTRAL COLORADO...

CITY           SKY/WX    TMP DP  RH WIND       PRES   REMARKS
ASPEN          CLOUDY    68  42  38 S21G29    30.41R
BUENA VISTA    DRIZZLE   61  44  53 S12G22    30.47F
COPPER MTN     LGT RAIN  54  34  47 S18       30.69S
BERTHOUD PASS  PTSUNNY   52  39  62 MISG      30.74S
COTTONWOOD PAS LGT RAIN  55  43  62 S12G17    30.60F
GUNNISON       CLOUDY    57  52  82 N6        30.50F
KREMMLING      CLOUDY    72  39  30 W3        30.32S
LEADVILLE      LGT RAIN  56  42  59 S21G30    30.55R
MONARCH PASS   DRZL/FOG  45  41  87 E3        30.83F VSB 3/4
SALIDA         CLOUDY    58  53  80 W17G23    30.53S
SUNLIGHT       CLOUDY    52  48  87 SW6       30.63F
WILKERSON PASS CLOUDY    54  37  54 SW10G16   30.67S
$$

COZ069>075-270100-
...SAN LUIS VALLEY/SANGRE DE CRISTO MOUNTAINS...

CITY           SKY/WX    TMP DP  RH WIND       PRES   REMARKS
ALAMOSA        CLOUDY    64  52  64 SE9       30.44F
LA VETA PASS   CLOUDY    48  46  93 MISG      30.60F
SAGUACHE       CLOUDY    55  52  88 SE3       30.50F
$$

COZ035-036-038>040-270100-
...NORTHERN COLORADO FRONT RANGE...

CITY           SKY/WX    TMP DP  RH WIND       PRES   REMARKS
DENVER INTL AP CLOUDY    88  36  15 S15G25    30.12S
DMNS CITY PARK   N/A     88  39  18 E8G26     30.11S
AURORA         PTSUNNY   86  39  18 S18       30.14F
FRONT RANGE AP PTSUNNY   90  32  12 MISG      30.14F
ERIE MUNI ARPT CLOUDY    87  39  18 N6        30.09S
BOULDER MUN AP CLOUDY    86  43  22 NE5       30.09F
CENTENNIAL     CLOUDY    85  35  16 S17G25    30.16F
BROOMFIELD     PTSUNNY   86  39  19 NW5       30.14F
FORT COLLINS   CLOUDY    86  46  25 N12       30.07S
LONGMONT       CLOUDY    90  42  18 NW3       30.09F
$$

COZ041-046-047-076>085-087-088-270100-
...PIKES PEAK/PALMER DIVIDE AND SOUTHERN FOOTHILLS...

CITY           SKY/WX    TMP DP  RH WIND       PRES   REMARKS
COLO. SPRINGS  CLOUDY    84  32  15 S10       30.23F
A. F. ACADEMY  CLOUDY    80  38  21 S10       30.24F
ELLICOTT       CLOUDY   N/A N/A N/A S10       30.21F
FALCON         CLOUDY    78  38  23 SE6       30.29F
FORT CARSON    MOSUNNY   84  38  19 SW22G28   30.18F
LIMON          CLOUDY    85  40  20 SE12      30.16F
MONUMENT HILL  CLOUDY    75  37  25 S8        30.29F
TRINIDAD       CLOUDY    79  43  27 W7        30.25S
$$

COZ042>045-048>051-090-091-270100-
...NORTHEAST COLORADO...

CITY           SKY/WX    TMP DP  RH WIND       PRES   REMARKS
GREELEY ARPT   CLOUDY    84  48  28 NE8       30.09R
AKRON          PTSUNNY   91  33  12 S15G24    30.09S
BURLINGTON     PTSUNNY   87  40  19 S13       30.10F
WRAY           MOSUNNY   99  31   9 S15       30.03S
STERLING       PTSUNNY   91  43  18 SW13      30.01S
HOLYOKE        MOSUNNY   86  52  30 S7        30.01F
FORT MORGAN    PTSUNNY   89  36  15 S13       30.06S
$$

COZ086-089-092>099-270100-
...SOUTHEAST COLORADO...

CITY           SKY/WX    TMP DP  RH WIND       PRES   REMARKS
PUEBLO         CLOUDY    87  43  21 SW21G29   30.13R
LA JUNTA       CLOUDY    92  48  22 S15       30.09S
LAMAR          CLOUDY    91  48  22 S20G26    30.06F
SPRINGFIELD      N/A     87  49  26 S14G22    30.16S
$$



USA.gov is the U.S. government's official web portal to all federal, state and local government web resources and services.